KB6CYS Weather Reports


Display with metric or nautical units.
time (UTC)temp
F
wind
direction
speed
MPH
gust
MPH
rain 1hr
in
rain 24hr
in
rain mn
in
humidity
%
barometer
mb
20260508041504 63 112 3.0 6.0 0.00 0.00 0.00 1014.9
20260508041003 63 137 2.0 5.0 0.00 0.00 0.00 1015.6
20260508040503 63 161 3.0 5.0 0.00 0.00 0.00 1015.3
20260508040003 63 175 3.0 5.0 0.00 0.00 0.00 1015.3
20260508035503 63 125 2.0 6.0 0.00 0.00 0.00 1015.3
20260508035003 64 166 3.0 6.0 0.00 0.00 0.00 1014.9
20260508034504 64 189 3.0 5.0 0.00 0.00 0.00 1015.3
20260508034002 64 170 3.0 5.0 0.00 0.00 0.00 1014.9
20260508033503 64 183 3.0 7.0 0.00 0.00 0.00 1014.6
20260508033002 64 167 3.0 7.0 0.00 0.00 0.00 1014.3
20260508032503 64 166 3.0 5.0 0.00 0.00 0.00 1014.3
20260508032002 64 159 3.0 8.0 0.00 0.00 0.00 1014.3
20260508031502 65 157 4.0 9.0 0.00 0.00 0.00 1013.9
20260508031002 65 174 4.0 9.0 0.00 0.00 0.00 1014.3
20260508030503 65 170 5.0 9.0 0.00 0.00 0.00 1013.9
20260508030003 65 183 5.0 9.0 0.00 0.00 0.00 1014.3
20260508025502 65 155 4.0 9.0 0.00 0.00 0.00 1013.9
20260508025024 66 167 5.0 11.0 0.00 0.00 0.00 1013.9
20260508024502 67 170 6.0 11.0 0.00 0.00 0.00 1014.3
20260508024025 67 183 5.0 10.0 0.00 0.00 0.00 1013.9
20260508023503 67 190 3.0 9.0 0.00 0.00 0.00 1013.9
20260508023002 68 173 4.0 10.0 0.00 0.00 0.00 1013.6
20260508022504 68 172 5.0 10.0 0.00 0.00 0.00 1013.9
20260508022003 69 159 5.0 10.0 0.00 0.00 0.00 1013.9
20260508021502 70 165 6.0 10.0 0.00 0.00 0.00 1013.9
20260508021003 71 187 5.0 10.0 0.00 0.00 0.00 1013.6
20260508020503 71 158 4.0 12.0 0.00 0.00 0.00 1013.9
20260508020003 72 175 5.0 12.0 0.00 0.00 0.00 1013.6
20260508015505 73 162 4.0 10.0 0.00 0.00 0.00 1014.3
20260508015002 74 172 6.0 9.0 0.00 0.00 0.00 1013.9
20260508014503 74 183 5.0 9.0 0.00 0.00 0.00 1013.9
20260508014003 74 195 6.0 10.0 0.00 0.00 0.00 1013.6
20260508013524 75 177 5.0 11.0 0.00 0.00 0.00 1013.6
20260508013003 75 169 5.0 11.0 0.00 0.00 0.00 1013.9
20260508012524 75 172 6.0 10.0 0.00 0.00 0.00 1013.9
20260508012024 75 174 7.0 10.0 0.00 0.00 0.00 1013.6
20260508011503 75 173 4.0 9.0 0.00 0.00 0.00 1013.2
20260508011002 75 208 5.0 10.0 0.00 0.00 0.00 1013.6
20260508010503 75 211 6.0 11.0 0.00 0.00 0.00 1013.2
20260508010025 75 184 5.0 11.0 0.00 0.00 0.00 1012.9
20260508005502 75 191 6.0 11.0 0.00 0.00 0.00 1013.9
20260508005004 75 180 6.0 12.0 0.00 0.00 0.00 1013.9
20260508004503 75 182 6.0 12.0 0.00 0.00 0.00 1013.6
20260508004002 75 207 6.0 12.0 0.00 0.00 0.00 1013.6
20260508003503 75 206 6.0 12.0 0.00 0.00 0.00 1012.9
20260508003023 75 214 6.0 12.0 0.00 0.00 0.00 1013.2
20260508002503 76 202 6.0 12.0 0.00 0.00 0.00 1012.6
20260508002024 76 178 8.0 12.0 0.00 0.00 0.00 1012.9
20260508001503 76 183 6.0 11.0 0.00 0.00 0.00 1012.6
20260508001003 76 193 7.0 12.0 0.00 0.00 0.00 1012.6
20260508000502 76 180 7.0 12.0 0.00 0.00 0.00 1012.9
20260508000024 78 211 6.0 11.0 0.00 0.00 0.00 1012.9
20260507235503 78 182 6.0 10.0 0.00 0.00 0.00 1013.6
20260507235002 78 209 6.0 10.0 0.00 0.00 0.00 1013.6
20260507234504 78 175 7.0 12.0 0.00 0.00 0.00 1012.6
20260507234003 77 173 7.0 12.0 0.00 0.00 0.00 1013.2
20260507233504 77 188 6.0 11.0 0.00 0.00 0.00 1013.6
20260507233005 77 184 6.0 11.0 0.00 0.00 0.00 1013.2
20260507232503 77 163 6.0 11.0 0.00 0.00 0.00 1013.6
20260507232003 77 180 4.0 11.0 0.00 0.00 0.00 1013.6
20260507231503 77 197 6.0 12.0 0.00 0.00 0.00 1013.6
20260507231002 77 206 5.0 12.0 0.00 0.00 0.00 1012.6
20260507230503 77 161 5.0 12.0 0.00 0.00 0.00 1012.9
20260507230002 76 195 6.0 12.0 0.00 0.00 0.00 1013.2
20260507225503 76 167 8.0 12.0 0.00 0.00 0.00 1013.6
20260507225003 76 214 5.0 11.0 0.00 0.00 0.00 1013.6
20260507224502 76 180 6.0 13.0 0.00 0.00 0.00 1013.6
20260507224003 76 186 5.0 13.0 0.00 0.00 0.00 1012.6
20260507223525 75 187 6.0 13.0 0.00 0.00 0.00 1012.6
20260507223004 75 168 6.0 12.0 0.00 0.00 0.00 1013.2
20260507222502 75 198 5.0 13.0 0.00 0.00 0.00 1013.6
20260507222024 75 213 7.0 13.0 0.00 0.00 0.00 1013.9
20260507221504 75 188 6.0 13.0 0.00 0.00 0.00 1013.6
20260507221024 74 191 7.0 13.0 0.00 0.00 0.00 1013.6
20260507220502 75 202 5.0 11.0 0.00 0.00 0.00 1013.6
20260507220024 75 201 7.0 12.0 0.00 0.00 0.00 1013.6
20260507215503 74 219 8.0 12.0 0.00 0.00 0.00 1014.3
20260507215002 74 214 8.0 13.0 0.00 0.00 0.00 1013.9
20260507214525 74 215 7.0 13.0 0.00 0.00 0.00 1013.9
20260507214004 75 229 7.0 12.0 0.00 0.00 0.00 1014.3
20260507213502 75 196 5.0 12.0 0.00 0.00 0.00 1013.6
20260507213002 74 206 6.0 11.0 0.00 0.00 0.00 1013.6
20260507212502 73 215 6.0 13.0 0.00 0.00 0.00 1013.6
20260507212003 73 220 6.0 14.0 0.00 0.00 0.00 1013.6
20260507211503 74 235 6.0 15.0 0.00 0.00 0.00 1013.6
20260507211024 74 223 7.0 15.0 0.00 0.00 0.00 1014.3
20260507210504 74 212 8.0 15.0 0.00 0.00 0.00 1013.9
20260507210025 73 227 8.0 15.0 0.00 0.00 0.00 1013.6
20260507205524 74 207 6.0 13.0 0.00 0.00 0.00 1013.9
20260507205003 73 192 7.0 15.0 0.00 0.00 0.00 1013.9
20260507204502 72 215 8.0 15.0 0.00 0.00 0.00 1014.3
20260507204024 73 227 7.0 12.0 0.00 0.00 0.00 1014.6
20260507203504 71 227 8.0 14.0 0.00 0.00 0.00 1014.3
20260507203003 71 235 8.0 14.0 0.00 0.00 0.00 1013.9
20260507202503 72 218 8.0 14.0 0.00 0.00 0.00 1014.3
20260507202025 73 230 10.0 14.0 0.00 0.00 0.00 1014.6
20260507201502 73 214 5.0 11.0 0.00 0.00 0.00 1014.3
20260507201004 73 211 7.0 11.0 0.00 0.00 0.00 1014.3
20260507200524 72 221 5.0 13.0 0.00 0.00 0.00 1014.9
20260507200002 72 217 6.0 13.0 0.00 0.00 0.00 1014.6
20260507195502 73 191 6.0 12.0 0.00 0.00 0.00 1014.9
20260507195003 73 212 7.0 14.0 0.00 0.00 0.00 1014.6
20260507194503 73 201 6.0 14.0 0.00 0.00 0.00 1014.3
20260507194004 73 214 6.0 12.0 0.00 0.00 0.00 1014.3
20260507193503 73 211 4.0 11.0 0.00 0.00 0.00 1014.6
20260507193003 72 203 5.0 12.0 0.00 0.00 0.00 1014.9
20260507192503 72 227 8.0 12.0 0.00 0.00 0.00 1014.9
20260507192002 72 221 4.0 10.0 0.00 0.00 0.00 1014.6
20260507191503 72 206 4.0 12.0 0.00 0.00 0.00 1014.9
20260507191003 71 229 7.0 12.0 0.00 0.00 0.00 1013.9
20260507190502 73 215 6.0 10.0 0.00 0.00 0.00 1014.6
20260507190004 73 164 4.0 9.0 0.00 0.00 0.00 1014.6
20260507185524 72 186 5.0 12.0 0.00 0.00 0.00 1014.9
20260507185002 72 181 7.0 12.0 0.00 0.00 0.00 1014.6
20260507184503 71 236 7.0 10.0 0.00 0.00 0.00 1014.6
20260507184003 72 210 4.0 9.0 0.00 0.00 0.00 1015.3
20260507183502 72 177 5.0 12.0 0.00 0.00 0.00 1014.9
20260507183003 70 190 5.0 12.0 0.00 0.00 0.00 1015.3
20260507182502 70 209 4.0 10.0 0.00 0.00 0.00 1015.3
20260507182003 71 225 6.0 10.0 0.00 0.00 0.00 1015.3
20260507181503 72 175 2.0 10.0 0.00 0.00 0.00 1014.9
20260507181025 71 158 4.0 9.0 0.00 0.00 0.00 1015.3
20260507180526 71 207 4.0 9.0 0.00 0.00 0.00 1014.3
20260507180002 70 195 5.0 11.0 0.00 0.00 0.00 1014.9
20260507175503 70 203 4.0 11.0 0.00 0.00 0.00 1014.9
20260507175003 70 236 5.0 11.0 0.00 0.00 0.00 1016.0
20260507174503 71 194 5.0 11.0 0.00 0.00 0.00 1014.9
20260507174002 70 178 5.0 11.0 0.00 0.00 0.00 1014.9
20260507173503 70 184 3.0 10.0 0.00 0.00 0.00 1014.6
20260507173003 69 210 3.0 10.0 0.00 0.00 0.00 1014.9
20260507172502 68 224 5.0 10.0 0.00 0.00 0.00 1014.6
20260507172003 67 246 4.0 7.0 0.00 0.00 0.00 1014.9
20260507171503 67 276 4.0 7.0 0.00 0.00 0.00 1014.6
20260507171002 68 229 5.0 7.0 0.00 0.00 0.00 1014.9
20260507170503 67 221 3.0 7.0 0.00 0.00 0.00 1014.9
20260507170003 67 223 4.0 7.0 0.00 0.00 0.00 1014.6
20260507165502 66 248 2.0 7.0 0.00 0.00 0.00 1014.9
20260507165003 65 224 1.0 6.0 0.00 0.00 0.00 1014.9
20260507164523 66 243 3.0 6.0 0.00 0.00 0.00 1014.6
20260507164004 66 130 2.0 5.0 0.00 0.00 0.00 1015.3
20260507163502 65 186 3.0 4.0 0.00 0.00 0.00 1015.3
20260507163024 65 325 3.0 4.0 0.00 0.00 0.00 1014.9
20260507162524 65 20 1.0 5.0 0.00 0.00 0.00 1014.9
20260507162004 64 197 3.0 5.0 0.00 0.00 0.00 1014.9
20260507161504 63 331 2.0 5.0 0.00 0.00 0.00 1014.9
20260507161004 64 265 2.0 5.0 0.00 0.00 0.00 1014.9
20260507160504 64 233 2.0 5.0 0.00 0.00 0.00 1015.6
20260507160004 63 210 1.0 5.0 0.00 0.00 0.00 1015.3
20260507155503 63 212 2.0 5.0 0.00 0.00 0.00 1015.3
20260507155025 62 242 2.0 5.0 0.00 0.00 0.00 1015.6
20260507154504 62 223 1.0 6.0 0.00 0.00 0.00 1015.3
20260507154003 62 259 4.0 6.0 0.00 0.00 0.00 1015.3
20260507153504 62 257 2.0 4.0 0.00 0.00 0.00 1015.6
20260507153002 62 334 1.0 3.0 0.00 0.00 0.00 1015.3
20260507152503 62 316 1.0 3.0 0.00 0.00 0.00 1015.3
20260507152024 61 211 1.0 3.0 0.00 0.00 0.00 1015.3
20260507151504 61 53 2.0 3.0 0.00 0.00 0.00 1015.3
20260507151003 61 45 1.0 4.0 0.00 0.00 0.00 1015.3
20260507150503 60 285 1.0 4.0 0.00 0.00 0.00 1015.3
20260507150004 60 343 2.0 3.0 0.00 0.00 0.00 1015.6
20260507145503 60 19 2.0 5.0 0.00 0.00 0.00 1015.3
20260507145002 59 8 1.0 5.0 0.00 0.00 0.00 1015.6
20260507144504 59 287 3.0 5.0 0.00 0.00 0.00 1016.0
20260507144004 59 351 1.0 5.0 0.00 0.00 0.00 1015.3
20260507143504 58 295 3.0 5.0 0.00 0.00 0.00 1014.9
20260507143023 58 299 3.0 5.0 0.00 0.00 0.00 1014.9
20260507142503 58 235 1.0 3.0 0.00 0.00 0.00 1015.6
20260507142003 58 265 0.0 2.0 0.00 0.00 0.00 1015.3
20260507141504 58 323 0.0 4.0 0.00 0.00 0.00 1015.6
20260507141002 57 278 2.0 4.0 0.00 0.00 0.00 1014.9
20260507140525 57 282 1.0 3.0 0.00 0.00 0.00 1015.3
20260507140002 57 230 1.0 2.0 0.00 0.00 0.00 1014.6
20260507135504 57 245 0.0 2.0 0.00 0.00 0.00 1015.3
20260507135003 56 190 2.0 2.0 0.00 0.00 0.00 1014.9
20260507134503 56 180 1.0 2.0 0.00 0.00 0.00 1014.9
20260507134025 56 180 1.0 1.0 0.00 0.00 0.00 1014.9
20260507133502 56 180 1.0 1.0 0.00 0.00 0.00 1014.9
20260507133003 56 180 0.0 1.0 0.00 0.00 0.00 1015.3
20260507132504 56 180 0.0 1.0 0.00 0.00 0.00 1014.9
20260507132004 56 180 1.0 1.0 0.00 0.00 0.00 1014.6
20260507131502 56 180 0.0 2.0 0.00 0.00 0.00 1014.9
20260507131003 56 180 1.0 2.0 0.00 0.00 0.00 1015.3
20260507130524 56 180 0.0 1.0 0.00 0.00 0.00 1015.6
20260507130003 56 180 0.0 1.0 0.00 0.00 0.00 1015.3
20260507125502 56 180 1.0 1.0 0.00 0.00 0.00 1014.3
20260507125003 56 203 0.0 2.0 0.00 0.00 0.00 1015.3
20260507124502 56 202 1.0 2.0 0.00 0.00 0.00 1015.3
20260507124003 56 202 1.0 2.0 0.00 0.00 0.00 1014.6
20260507123502 56 202 0.0 1.0 0.00 0.00 0.00 1014.6
20260507123002 56 225 0.0 0.0 0.00 0.00 0.00 1014.9
20260507122503 56 225 0.0 1.0 0.00 0.00 0.00 1014.6
20260507122004 56 225 0.0 1.0 0.00 0.00 0.00 1014.9
20260507121504 56 224 1.0 1.0 0.00 0.00 0.00 1014.9
20260507121003 57 202 1.0 1.0 0.00 0.00 0.00 1014.9
20260507120503 57 269 0.0 0.0 0.00 0.00 0.00 1014.9
20260507120002 56 270 0.0 0.0 0.00 0.00 0.00 1014.9
20260507115503 56 23 0.0 0.0 0.00 0.00 0.00 1014.9
20260507115003 57 90 0.0 0.0 0.00 0.00 0.00 1014.6
20260507114503 57 270 0.0 1.0 0.00 0.00 0.00 1014.6
20260507114003 57 202 0.0 1.0 0.00 0.00 0.00 1014.9
20260507113503 57 225 0.0 0.0 0.00 0.00 0.00 1014.6
20260507113003 57 293 0.0 0.0 0.00 0.00 0.00 1015.3
20260507112504 57 270 0.0 0.0 0.00 0.00 0.00 1015.3
20260507112003 57 270 0.0 0.0 0.00 0.00 0.00 1015.3
20260507111503 57 293 0.0 1.0 0.00 0.00 0.00 1015.6
20260507111004 57 235 1.0 1.0 0.00 0.00 0.00 1015.3
20260507110503 57 248 0.0 0.0 0.00 0.00 0.00 1015.6
20260507110005 57 248 0.0 0.0 0.00 0.00 0.00 1015.3
20260507105503 57 248 0.0 1.0 0.00 0.00 0.00 1015.6
20260507105003 58 270 0.0 1.0 0.00 0.00 0.00 1016.0
20260507104502 58 360 0.0 1.0 0.00 0.00 0.00 1016.0
20260507104003 58 360 0.0 0.0 0.00 0.00 0.00 1015.6
20260507103503 58 360 0.0 0.0 0.00 0.00 0.00 1015.6
20260507103003 58 360 0.0 0.0 0.00 0.00 0.00 1015.6
20260507102503 58 360 0.0 1.0 0.00 0.00 0.00 1015.3
20260507102025 58 360 0.0 2.0 0.00 0.00 0.00 1015.3
20260507101502 58 360 1.0 2.0 0.00 0.00 0.00 1015.6
20260507101003 58 360 0.0 0.0 0.00 0.00 0.00 1016.0
20260507100503 58 360 0.0 1.0 0.00 0.00 0.00 1016.0
20260507100004 58 360 0.0 1.0 0.00 0.00 0.00 1015.6
20260507095504 58 360 1.0 1.0 0.00 0.00 0.00 1015.6
20260507095024 58 360 0.0 1.0 0.00 0.00 0.00 1016.0
20260507094524 58 360 0.0 0.0 0.00 0.00 0.00 1015.6
20260507094004 58 360 0.0 0.0 0.00 0.00 0.00 1015.6
20260507093502 58 360 0.0 0.0 0.00 0.00 0.00 1015.3
20260507093004 58 360 0.0 0.0 0.00 0.00 0.00 1015.3
20260507092503 58 360 0.0 1.0 0.00 0.00 0.00 1015.3
20260507092003 58 360 0.0 1.0 0.00 0.00 0.00 1015.6
20260507091524 58 360 1.0 1.0 0.00 0.00 0.00 1015.3
20260507091003 59 360 0.0 1.0 0.00 0.00 0.00 1015.6
20260507090525 59 360 0.0 2.0 0.00 0.00 0.00 1015.6
20260507090004 58 360 1.0 2.0 0.00 0.00 0.00 1015.6
20260507085503 59 360 1.0 2.0 0.00 0.00 0.00 1016.0
20260507085002 59 360 0.0 2.0 0.00 0.00 0.00 1016.3
20260507084503 59 360 0.0 2.0 0.00 0.00 0.00 1015.6
20260507084003 59 314 1.0 2.0 0.00 0.00 0.00 1016.3
20260507083502 59 253 0.0 2.0 0.00 0.00 0.00 1016.0
20260507083003 59 285 1.0 3.0 0.00 0.00 0.00 1016.0
20260507082502 59 280 2.0 3.0 0.00 0.00 0.00 1016.3
20260507082003 59 345 2.0 2.0 0.00 0.00 0.00 1016.3
20260507081502 59 335 1.0 2.0 0.00 0.00 0.00 1016.3
20260507081003 59 279 1.0 3.0 0.00 0.00 0.00 1016.3
20260507080524 59 294 1.0 3.0 0.00 0.00 0.00 1016.6
20260507080004 59 274 2.0 3.0 0.00 0.00 0.00 1017.0
20260507075524 59 287 2.0 3.0 0.00 0.00 0.00 1016.6
20260507075003 59 287 2.0 3.0 0.00 0.00 0.00 1016.3
20260507074503 59 295 1.0 4.0 0.00 0.00 0.00 1016.3
20260507074004 59 281 2.0 5.0 0.00 0.00 0.00 1016.6
20260507073525 59 287 2.0 5.0 0.00 0.00 0.00 1016.6
20260507073003 59 285 2.0 3.0 0.00 0.00 0.00 1016.3
20260507072503 59 287 2.0 5.0 0.00 0.00 0.00 1016.6
20260507072002 59 321 2.0 5.0 0.00 0.00 0.00 1016.6
20260507071503 59 282 3.0 5.0 0.00 0.00 0.00 1017.0
20260507071004 60 247 2.0 4.0 0.00 0.00 0.00 1017.0
20260507070503 60 254 2.0 3.0 0.00 0.00 0.00 1017.0
20260507070008 60 285 2.0 3.0 0.00 0.00 0.00 1016.3
20260507065503 60 275 0.0 4.0 0.00 0.00 0.00 1017.0
20260507065002 59 288 2.0 5.0 0.00 0.00 0.00 1016.6
20260507064503 60 310 1.0 5.0 0.00 0.00 0.00 1016.6
20260507064002 60 271 3.0 4.0 0.00 0.00 0.00 1016.6
20260507063524 60 281 2.0 6.0 0.00 0.00 0.00 1016.6
20260507063003 60 277 4.0 6.0 0.00 0.00 0.00 1016.6
20260507062503 60 282 2.0 6.0 0.00 0.00 0.00 1016.6
20260507062002 60 285 3.0 7.0 0.00 0.00 0.00 1016.6
20260507061503 60 288 4.0 7.0 0.00 0.00 0.00 1017.0
20260507061004 60 294 3.0 5.0 0.00 0.00 0.00 1016.6
20260507060503 60 272 2.0 5.0 0.00 0.00 0.00 1017.0
20260507060003 60 303 2.0 3.0 0.00 0.00 0.00 1016.6
20260507055503 60 299 2.0 5.0 0.00 0.00 0.00 1017.0
20260507055004 61 282 3.0 5.0 0.00 0.00 0.00 1017.0
20260507054503 61 285 2.0 4.0 0.00 0.00 0.00 1017.0
20260507054003 61 297 2.0 6.0 0.00 0.00 0.00 1017.3
20260507053504 61 276 3.0 6.0 0.00 0.00 0.00 1017.3
20260507053004 61 279 3.0 4.0 0.00 0.00 0.00 1017.0
20260507052525 61 280 2.0 5.0 0.00 0.00 0.00 1017.0
20260507052004 61 282 3.0 5.0 0.00 0.00 0.00 1016.6
20260507051503 61 285 3.0 7.0 0.00 0.00 0.00 1017.0
20260507051002 61 298 3.0 7.0 0.00 0.00 0.00 1016.6
20260507050502 61 285 3.0 9.0 0.00 0.00 0.00 1017.0
20260507050001 61 278 3.0 9.0 0.00 0.00 0.00 1017.0
20260507045504 61 282 5.0 9.0 0.00 0.00 0.00 1017.0
20260507045002 61 290 3.0 7.0 0.00 0.00 0.00 1016.6
20260507044502 61 275 4.0 6.0 0.00 0.00 0.00 1017.0
20260507044003 62 286 3.0 6.0 0.00 0.00 0.00 1016.3
20260507043502 62 275 4.0 7.0 0.00 0.00 0.00 1016.6
20260507043002 61 279 4.0 9.0 0.00 0.00 0.00 1016.3
20260507042502 61 288 4.0 9.0 0.00 0.00 0.00 1016.6
20260507042003 61 285 5.0 10.0 0.00 0.00 0.00 1016.3